Simultaneous Nadir Overpasses (SNOs) Predictions

Prediction of SNOs near equator between AQUA and NPP Satellite Orbit:

Table of predicted SNOs near equator for the next 14.0 days since TLE Epoch: 10/29/2016
Index Date (AQUA) Time (AQUA) AQUA Lat,Lon Date (NPP) Time (NPP) NPP Lat,Lon Distance(km) Time Diff (sec)
1 10/30/2016 23:20:40 -10.49, 32.08 10/30/2016 23:10:41 -10.49, 32.08 0.44 599
2 10/31/2016 00:07:46 1.71,-158.42 10/30/2016 23:59:00 1.63,-158.63 25.64 526
3 10/31/2016 00:55:53 2.81, 10.20 10/31/2016 00:48:23 2.91, 9.71 55.63 450
4 10/31/2016 01:44:08 -7.42, 178.81 10/31/2016 01:37:53 -7.59, 178.06 84.95 375
5 11/02/2016 15:35:35 -4.77, 149.19 11/02/2016 15:25:59 -4.76, 149.14 6.04 576
6 11/02/2016 16:23:51 0.22, -42.22 11/02/2016 16:15:30 0.13, -42.54 36.19 501
7 11/02/2016 17:11:57 4.36, 126.41 11/02/2016 17:04:52 4.47, 125.83 66.09 425
8 11/02/2016 18:00:13 -8.90, -64.99 11/02/2016 17:54:23 -9.09, -65.84 95.10 350
9 11/05/2016 07:51:40 -3.30, -94.62 11/05/2016 07:42:29 -3.26, -94.76 16.78 551
10 11/05/2016 08:39:55 -1.31, 73.98 11/05/2016 08:31:59 -1.42, 73.58 46.86 476
11 11/05/2016 09:28:02 5.83,-117.40 11/05/2016 09:21:22 5.97,-118.07 76.59 400
12 11/07/2016 23:20:15 8.60,-147.53 11/07/2016 23:10:15 8.60,-147.53 0.10 600
13 11/08/2016 00:07:44 -1.78, 21.59 11/07/2016 23:58:58 -1.70, 21.35 27.66 526
14 11/08/2016 00:55:58 -2.83,-169.82 11/08/2016 00:48:28 -2.92,-170.33 57.55 450
15 11/08/2016 01:44:05 7.35, -1.19 11/08/2016 01:37:50 7.52, -1.96 86.99
